QPF
0.01 0.01 0.01 0.01 0.00 0.00 0.01 0.02 0.02 0.02 0.02 0.04 0.05 0.07 0.10 0.09 0.10 0.10 0.04 0.02 0.01 0.01 0.02 0.03 0.05 0.06 0.07 0.09 0.11 0.11 0.11 0.14 0.12 0.08 0.05 0.03 0.02 0.04 0.04 0.03 0.01 0.01 0.01
0.01 0.01 0.01 0.01 0.01 0.01 0.02 0.02 0.02 0.01 0.02 0.03 0.04 0.07 0.09 0.08 0.06 0.07 0.07 0.03 0.01 0.01 0.01 0.01 0.01 0.02 0.03 0.05 0.08 0.10 0.10 0.12 0.14 0.12 0.08 0.06 0.04 0.03 0.04 0.04 0.02 0.01 0.01
0.01 0.01 0.01 0.02 0.02 0.02 0.02 0.02 0.02 0.01 0.01 0.02 0.04 0.06 0.07 0.08 0.06 0.04 0.04 0.04 0.02 0.01 0.01 0.01 0.01 0.01 0.02 0.03 0.04 0.07 0.10 0.11 0.12 0.13 0.10 0.07 0.06 0.04 0.03 0.04 0.04 0.02 0.01
0.00 0.01 0.01 0.02 0.02 0.03 0.03 0.02 0.02 0.01 0.01 0.02 0.03 0.04 0.05 0.05 0.05 0.04 0.03 0.03 0.02 0.01 0.01 0.01 0.01 0.01 0.02 0.03 0.03 0.04 0.07 0.09 0.11 0.12 0.11 0.08 0.05 0.04 0.04 0.04 0.04 0.03 0.02
0.00 0.00 0.00 0.01 0.02 0.02 0.03 0.03 0.02 0.02 0.01 0.01 0.02 0.02 0.03 0.03 0.03 0.03 0.03 0.03 0.03 0.02 0.01 0.01 0.01 0.01 0.01 0.02 0.03 0.05 0.06 0.08 0.08 0.09 0.10 0.09 0.08 0.06 0.05 0.05 0.05 0.05 0.03
0.00 0.00 0.00 0.01 0.01 0.02 0.03 0.03 0.03 0.02 0.02 0.02 0.02 0.02 0.02 0.03 0.02 0.02 0.02 0.03 0.03 0.03 0.02 0.02 0.02 0.02 0.02 0.02 0.02 0.04 0.06 0.08 0.08 0.08 0.08 0.09 0.09 0.08 0.06 0.05 0.06 0.06 0.05
0.00 0.00 0.00 0.01 0.01 0.02 0.03 0.04 0.03 0.03 0.03 0.03 0.03 0.03 0.04 0.04 0.03 0.02 0.02 0.02 0.03 0.03 0.03 0.03 0.02 0.02 0.02 0.02 0.03 0.04 0.06 0.07 0.08 0.08 0.07 0.08 0.08 0.08 0.06 0.05 0.06 0.06 0.05
0.00 0.01 0.01 0.01 0.02 0.03 0.03 0.04 0.04 0.03 0.03 0.03 0.04 0.04 0.04 0.05 0.04 0.03 0.03 0.03 0.03 0.03 0.03 0.03 0.02 0.02 0.01 0.02 0.03 0.04 0.05 0.07 0.08 0.08 0.08 0.07 0.07 0.07 0.07 0.05 0.04 0.05 0.04
0.00 0.00 0.00 0.00 0.01 0.03 0.03 0.04 0.03 0.02 0.02 0.02 0.03 0.04 0.05 0.06 0.06 0.06 0.05 0.05 0.04 0.04 0.03 0.02 0.02 0.02 0.02 0.02 0.03 0.03 0.03 0.04 0.05 0.06 0.06 0.05 0.05 0.05 0.05 0.04 0.03 0.03 0.03
0.00 0.00 0.00 0.00 0.00 0.02 0.02 0.03 0.03 0.04 0.04 0.03 0.02 0.03 0.03 0.05 0.06 0.07 0.07 0.06 0.05 0.04 0.03 0.03 0.02 0.02 0.02 0.01 0.02 0.03 0.03 0.03 0.03 0.04 0.04 0.04 0.04 0.04 0.04 0.03 0.02 0.02 0.01
0.01 0.01 0.02 0.01 0.02 0.02 0.02 0.02 0.02 0.03 0.05 0.04 0.03 0.02 0.03 0.03 0.04 0.05 0.06 0.05 0.05 0.05 0.04 0.04 0.03 0.03 0.03 0.02 0.01 0.02 0.03 0.03 0.03 0.03 0.02 0.02 0.03 0.03 0.04 0.03 0.02 0.01 0.01
0.00 0.00 0.01 0.01 0.02 0.03 0.04 0.03 0.02 0.03 0.04 0.04 0.02 0.02 0.03 0.05 0.05 0.05 0.05 0.05 0.05 0.05 0.04 0.04 0.03 0.02 0.02 0.02 0.01 0.01 0.01 0.03 0.03 0.03 0.02 0.02 0.02 0.03 0.03 0.04 0.03 0.02 0.01
0.00 0.00 0.00 0.00 0.01 0.01 0.03 0.04 0.04 0.03 0.03 0.03 0.03 0.02 0.03 0.05 0.05 0.05 0.05 0.06 0.05 0.04 0.04 0.03 0.03 0.02 0.02 0.01 0.01 0.01 0.01 0.02 0.03 0.03 0.03 0.02 0.02 0.02 0.03 0.04 0.04 0.03 0.02
0.00 0.00 0.00 0.00 0.00 0.00 0.01 0.02 0.02 0.03 0.03 0.03 0.02 0.03 0.02 0.03 0.04 0.04 0.05 0.05 0.06 0.05 0.04 0.04 0.03 0.03 0.02 0.02 0.02 0.02 0.02 0.02 0.02 0.03 0.03 0.02 0.01 0.01 0.02 0.03 0.03 0.03 0.01
0.00 0.00 0.00 0.00 0.00 0.00 0.00 0.01 0.01 0.02 0.02 0.03 0.03 0.02 0.02 0.02 0.03 0.04 0.05 0.05 0.05 0.05 0.04 0.04 0.03 0.02 0.02 0.01 0.01 0.01 0.02 0.03 0.03 0.03 0.03 0.03 0.03 0.02 0.01 0.02 0.02 0.02 0.02
0.00 0.00 0.00 0.00 0.00 0.00 0.00 0.00 0.00 0.01 0.01 0.01 0.02 0.02 0.01 0.01 0.01 0.02 0.02 0.02 0.03 0.03 0.03 0.02 0.02 0.02 0.02 0.02 0.02 0.01 0.01 0.01 0.02 0.03 0.03 0.03 0.03 0.03 0.02 0.02 0.02 0.02 0.01
0.00 0.00 0.00 0.00 0.00 0.00 0.00 0.00 0.00 0.00 0.01 0.01 0.01 0.02 0.02 0.01 0.01 0.01 0.01 0.01 0.01 0.01 0.01 0.01 0.01 0.01 0.01 0.02 0.02 0.01 0.01 0.01 0.01 0.02 0.03 0.03 0.03 0.03 0.02 0.02 0.02 0.02 0.01
0.00 0.00 0.00 0.00 0.00 0.00 0.00 0.00 0.00 0.00 0.00 0.00 0.01 0.01 0.01 0.01 0.01 0.01 0.01 0.00 0.00 0.00 0.00 0.00 0.01 0.01 0.01 0.02 0.02 0.01 0.01 0.02 0.01 0.02 0.02 0.03 0.03 0.02 0.02 0.02 0.01 0.02 0.01
0.00 0.00 0.00 0.00 0.00 0.00 0.00 0.00 0.00 0.00 0.00 0.00 0.00 0.00 0.01 0.01 0.01 0.01 0.01 0.01 0.01 0.01 0.00 0.00 0.00 0.01 0.01 0.01 0.02 0.02 0.01 0.01 0.02 0.02 0.02 0.02 0.02 0.03 0.02 0.02 0.02 0.01 0.01
0.00 0.00 0.00 0.00 0.00 0.00 0.00 0.00 0.00 0.00 0.00 0.00 0.00 0.00 0.00 0.00 0.01 0.01 0.01 0.02 0.02 0.01 0.01 0.01 0.01 0.01 0.01 0.01 0.01 0.02 0.01 0.01 0.01 0.02 0.02 0.02 0.02 0.02 0.02 0.01 0.01 0.01 0.01
0.00 0.00 0.00 0.00 0.00 0.00 0.00 0.00 0.00 0.00 0.00 0.00 0.00 0.00 0.00 0.00 0.01 0.01 0.01 0.01 0.01 0.01 0.01 0.01 0.01 0.01 0.02 0.02 0.02 0.02 0.02 0.01 0.01 0.02 0.02 0.02 0.02 0.02 0.02 0.02 0.01 0.01 0.01
0.00 0.00 0.00 0.00 0.00 0.00 0.00 0.00 0.00 0.00 0.00 0.00 0.00 0.00 0.01 0.01 0.01 0.01 0.01 0.01 0.01 0.02 0.02 0.02 0.02 0.02 0.02 0.02 0.02 0.02 0.01 0.01 0.01 0.01 0.01 0.01 0.02 0.02 0.02 0.02 0.01 0.01 0.01
0.00 0.00 0.00 0.00 0.00 0.00 0.00 0.00 0.00 0.00 0.00 0.00 0.00 0.00 0.00 0.01 0.01 0.01 0.01 0.01 0.01 0.01 0.01 0.01 0.02 0.02 0.02 0.02 0.02 0.02 0.02 0.02 0.02 0.01 0.01 0.01 0.02 0.02 0.02 0.01 0.01 0.01 0.01
0.01 0.00 0.00 0.00 0.00 0.00 0.00 0.00 0.00 0.00 0.00 0.00 0.00 0.00 0.00 0.00 0.00 0.01 0.01 0.01 0.01 0.01 0.01 0.01 0.01 0.01 0.01 0.02 0.02 0.02 0.02 0.02 0.02 0.01 0.02 0.02 0.02 0.02 0.02 0.01 0.01 0.01 0.01
0.01 0.01 0.01 0.00 0.00 0.00 0.00 0.00 0.00 0.01 0.00 0.00 0.00 0.00 0.00 0.00 0.00 0.00 0.00 0.01 0.01 0.01 0.01 0.01 0.01 0.01 0.01 0.01 0.02 0.02 0.02 0.02 0.02 0.02 0.02 0.02 0.02 0.02 0.02 0.02 0.01 0.01 0.01
0.01 0.01 0.00 0.00 0.00 0.01 0.01 0.01 0.00 0.00 0.00 0.01 0.00 0.00 0.00 0.01 0.01 0.01 0.01 0.00 0.01 0.01 0.01 0.01 0.01 0.01 0.01 0.01 0.02 0.02 0.02 0.02 0.02 0.02 0.02 0.02 0.02 0.02 0.02 0.02 0.01 0.01 0.01
MSLP
1012.76 1012.06 1011.45 1010.96 1010.61 1010.43 1010.41 1010.53 1010.78 1011.13 1011.56 1012.04 1012.55 1013.08 1013.59 1014.09 1014.55 1014.97 1015.34 1015.68 1015.99 1016.30 1016.62 1016.98 1017.38 1017.82 1018.31 1018.83 1019.36 1019.88 1020.37 1020.83 1021.25 1021.63 1021.98 1022.30 1022.58 1022.83 1023.05 1023.21 1023.33 1023.41 1023.45
1012.83 1012.11 1011.47 1010.94 1010.56 1010.35 1010.32 1010.45 1010.73 1011.14 1011.64 1012.20 1012.79 1013.39 1013.95 1014.47 1014.94 1015.34 1015.69 1016.01 1016.30 1016.59 1016.90 1017.25 1017.63 1018.06 1018.51 1018.98 1019.45 1019.91 1020.35 1020.76 1021.16 1021.53 1021.89 1022.24 1022.58 1022.88 1023.16 1023.39 1023.57 1023.70 1023.80
1012.90 1012.18 1011.54 1011.00 1010.61 1010.39 1010.34 1010.47 1010.76 1011.19 1011.74 1012.35 1012.99 1013.62 1014.22 1014.77 1015.24 1015.65 1015.99 1016.30 1016.59 1016.88 1017.19 1017.53 1017.89 1018.28 1018.69 1019.10 1019.50 1019.88 1020.25 1020.61 1020.96 1021.32 1021.69 1022.07 1022.44 1022.80 1023.13 1023.42 1023.67 1023.87 1024.02
1012.95 1012.26 1011.65 1011.14 1010.76 1010.53 1010.47 1010.58 1010.86 1011.28 1011.82 1012.43 1013.08 1013.73 1014.35 1014.90 1015.39 1015.80 1016.16 1016.49 1016.79 1017.09 1017.41 1017.75 1018.10 1018.46 1018.82 1019.16 1019.49 1019.80 1020.10 1020.40 1020.71 1021.05 1021.41 1021.80 1022.21 1022.61 1022.99 1023.35 1023.65 1023.91 1024.13
1013.01 1012.38 1011.82 1011.35 1010.99 1010.76 1010.68 1010.75 1010.99 1011.37 1011.87 1012.44 1013.06 1013.69 1014.30 1014.85 1015.34 1015.78 1016.16 1016.51 1016.85 1017.18 1017.52 1017.87 1018.22 1018.56 1018.88 1019.17 1019.44 1019.69 1019.93 1020.18 1020.46 1020.77 1021.13 1021.52 1021.94 1022.37 1022.79 1023.18 1023.54 1023.86 1024.14
1013.12 1012.56 1012.07 1011.64 1011.31 1011.07 1010.96 1010.99 1011.15 1011.45 1011.87 1012.37 1012.93 1013.51 1014.08 1014.62 1015.12 1015.58 1015.99 1016.38 1016.76 1017.13 1017.51 1017.88 1018.23 1018.57 1018.87 1019.14 1019.38 1019.59 1019.79 1020.01 1020.26 1020.55 1020.88 1021.27 1021.68 1022.12 1022.56 1022.98 1023.38 1023.74 1024.08
1013.32 1012.83 1012.40 1012.03 1011.71 1011.47 1011.31 1011.26 1011.33 1011.52 1011.83 1012.23 1012.71 1013.23 1013.75 1014.27 1014.77 1015.24 1015.69 1016.12 1016.54 1016.96 1017.37 1017.78 1018.16 1018.51 1018.82 1019.09 1019.32 1019.52 1019.72 1019.92 1020.15 1020.42 1020.73 1021.09 1021.49 1021.92 1022.35 1022.78 1023.20 1023.59 1023.97
1013.63 1013.21 1012.84 1012.50 1012.19 1011.91 1011.70 1011.56 1011.52 1011.60 1011.79 1012.08 1012.46 1012.89 1013.37 1013.86 1014.35 1014.84 1015.31 1015.78 1016.24 1016.70 1017.15 1017.59 1018.00 1018.38 1018.72 1019.02 1019.28 1019.50 1019.71 1019.92 1020.15 1020.40 1020.69 1021.02 1021.39 1021.78 1022.19 1022.61 1023.03 1023.44 1023.84
1014.04 1013.69 1013.36 1013.04 1012.71 1012.40 1012.11 1011.88 1011.73 1011.68 1011.75 1011.93 1012.21 1012.57 1012.99 1013.45 1013.93 1014.41 1014.90 1015.39 1015.88 1016.37 1016.85 1017.33 1017.78 1018.20 1018.59 1018.93 1019.23 1019.51 1019.75 1019.99 1020.23 1020.48 1020.75 1021.05 1021.37 1021.72 1022.10 1022.49 1022.90 1023.32 1023.75
1014.55 1014.24 1013.93 1013.61 1013.26 1012.89 1012.53 1012.20 1011.95 1011.80 1011.76 1011.83 1012.02 1012.31 1012.67 1013.08 1013.54 1014.01 1014.50 1014.99 1015.49 1016.00 1016.50 1017.00 1017.49 1017.95 1018.39 1018.79 1019.16 1019.50 1019.80 1020.07 1020.34 1020.59 1020.86 1021.12 1021.41 1021.72 1022.06 1022.43 1022.83 1023.25 1023.68
1015.10 1014.82 1014.51 1014.17 1013.78 1013.36 1012.93 1012.53 1012.19 1011.94 1011.81 1011.80 1011.91 1012.12 1012.43 1012.79 1013.21 1013.65 1014.11 1014.59 1015.08 1015.58 1016.09 1016.60 1017.11 1017.62 1018.11 1018.58 1019.01 1019.42 1019.78 1020.11 1020.41 1020.69 1020.95 1021.20 1021.46 1021.74 1022.06 1022.40 1022.79 1023.22 1023.66
1015.64 1015.37 1015.06 1014.69 1014.26 1013.79 1013.30 1012.83 1012.43 1012.11 1011.91 1011.83 1011.87 1012.02 1012.26 1012.57 1012.94 1013.33 1013.75 1014.19 1014.65 1015.12 1015.62 1016.13 1016.66 1017.19 1017.73 1018.25 1018.75 1019.23 1019.66 1020.05 1020.39 1020.69 1020.97 1021.22 1021.48 1021.75 1022.05 1022.39 1022.78 1023.21 1023.67
1016.11 1015.86 1015.53 1015.14 1014.67 1014.16 1013.63 1013.12 1012.67 1012.31 1012.06 1011.92 1011.91 1011.99 1012.17 1012.41 1012.70 1013.03 1013.39 1013.78 1014.19 1014.63 1015.10 1015.60 1016.13 1016.68 1017.25 1017.82 1018.37 1018.90 1019.39 1019.83 1020.23 1020.57 1020.87 1021.15 1021.41 1021.69 1022.00 1022.35 1022.75 1023.19 1023.67
1016.50 1016.25 1015.91 1015.49 1015.01 1014.47 1013.92 1013.39 1012.92 1012.53 1012.24 1012.06 1011.99 1012.01 1012.11 1012.27 1012.49 1012.75 1013.04 1013.36 1013.72 1014.12 1014.55 1015.04 1015.56 1016.12 1016.70 1017.30 1017.89 1018.46 1018.99 1019.48 1019.92 1020.30 1020.64 1020.95 1021.25 1021.56 1021.89 1022.26 1022.68 1023.15 1023.63
1016.79 1016.53 1016.19 1015.76 1015.26 1014.72 1014.17 1013.64 1013.16 1012.76 1012.45 1012.23 1012.10 1012.05 1012.08 1012.16 1012.29 1012.47 1012.69 1012.95 1013.26 1013.61 1014.02 1014.48 1014.99 1015.54 1016.13 1016.73 1017.34 1017.94 1018.50 1019.02 1019.50 1019.92 1020.31 1020.66 1021.00 1021.34 1021.71 1022.11 1022.56 1023.03 1023.53
1016.96 1016.72 1016.37 1015.94 1015.45 1014.92 1014.39 1013.87 1013.40 1012.99 1012.66 1012.40 1012.22 1012.10 1012.05 1012.05 1012.10 1012.20 1012.36 1012.56 1012.83 1013.15 1013.53 1013.97 1014.47 1015.01 1015.59 1016.19 1016.79 1017.39 1017.97 1018.51 1019.01 1019.47 1019.90 1020.29 1020.68 1021.07 1021.47 1021.91 1022.37 1022.85 1023.35
1017.05 1016.81 1016.47 1016.06 1015.58 1015.08 1014.57 1014.08 1013.62 1013.22 1012.86 1012.57 1012.33 1012.15 1012.02 1011.94 1011.92 1011.95 1012.06 1012.22 1012.45 1012.75 1013.12 1013.55 1014.03 1014.56 1015.12 1015.71 1016.30 1016.88 1017.45 1018.00 1018.52 1019.00 1019.46 1019.90 1020.33 1020.75 1021.19 1021.65 1022.12 1022.60 1023.08
1017.07 1016.83 1016.51 1016.11 1015.67 1015.19 1014.72 1014.25 1013.82 1013.41 1013.04 1012.71 1012.42 1012.17 1011.97 1011.83 1011.74 1011.73 1011.80 1011.94 1012.16 1012.45 1012.81 1013.23 1013.71 1014.22 1014.76 1015.31 1015.88 1016.44 1017.00 1017.54 1018.06 1018.57 1019.05 1019.52 1019.98 1020.44 1020.90 1021.36 1021.83 1022.29 1022.74
1017.04 1016.81 1016.50 1016.12 1015.71 1015.27 1014.83 1014.39 1013.97 1013.56 1013.17 1012.81 1012.47 1012.16 1011.91 1011.71 1011.58 1011.54 1011.58 1011.71 1011.92 1012.22 1012.58 1013.00 1013.46 1013.96 1014.47 1015.00 1015.53 1016.07 1016.60 1017.13 1017.66 1018.18 1018.68 1019.18 1019.67 1020.15 1020.62 1021.08 1021.52 1021.95 1022.36
1016.99 1016.76 1016.46 1016.11 1015.72 1015.31 1014.90 1014.48 1014.07 1013.66 1013.25 1012.86 1012.47 1012.13 1011.82 1011.58 1011.42 1011.36 1011.39 1011.51 1011.73 1012.03 1012.39 1012.80 1013.25 1013.73 1014.22 1014.71 1015.22 1015.73 1016.25 1016.78 1017.31 1017.83 1018.36 1018.88 1019.39 1019.88 1020.35 1020.80 1021.22 1021.61 1021.97
1016.95 1016.71 1016.42 1016.08 1015.71 1015.32 1014.93 1014.53 1014.12 1013.70 1013.28 1012.85 1012.44 1012.05 1011.71 1011.44 1011.26 1011.18 1011.20 1011.32 1011.53 1011.83 1012.19 1012.59 1013.02 1013.47 1013.94 1014.41 1014.89 1015.39 1015.90 1016.42 1016.96 1017.51 1018.07 1018.61 1019.14 1019.64 1020.11 1020.55 1020.95 1021.30 1021.61
1016.94 1016.69 1016.38 1016.05 1015.69 1015.31 1014.93 1014.53 1014.12 1013.69 1013.25 1012.80 1012.35 1011.94 1011.57 1011.28 1011.07 1010.98 1010.98 1011.09 1011.29 1011.58 1011.91 1012.30 1012.71 1013.13 1013.58 1014.03 1014.50 1014.99 1015.51 1016.05 1016.61 1017.19 1017.77 1018.35 1018.90 1019.42 1019.89 1020.32 1020.70 1021.03 1021.31
1016.97 1016.70 1016.37 1016.03 1015.67 1015.29 1014.91 1014.50 1014.07 1013.63 1013.16 1012.69 1012.22 1011.78 1011.39 1011.08 1010.85 1010.73 1010.72 1010.81 1010.98 1011.24 1011.55 1011.90 1012.28 1012.68 1013.10 1013.54 1014.01 1014.51 1015.05 1015.62 1016.22 1016.83 1017.46 1018.07 1018.65 1019.19 1019.68 1020.11 1020.48 1020.79 1021.06
1017.06 1016.75 1016.40 1016.03 1015.65 1015.26 1014.86 1014.43 1013.98 1013.51 1013.02 1012.52 1012.03 1011.57 1011.16 1010.82 1010.58 1010.43 1010.39 1010.44 1010.59 1010.80 1011.07 1011.39 1011.73 1012.11 1012.52 1012.95 1013.43 1013.96 1014.52 1015.13 1015.78 1016.45 1017.11 1017.77 1018.39 1018.96 1019.47 1019.91 1020.29 1020.61 1020.87
1017.19 1016.83 1016.45 1016.05 1015.64 1015.22 1014.78 1014.31 1013.83 1013.33 1012.80 1012.28 1011.76 1011.28 1010.86 1010.50 1010.23 1010.06 1009.99 1010.00 1010.10 1010.27 1010.50 1010.78 1011.10 1011.45 1011.85 1012.30 1012.80 1013.35 1013.96 1014.63 1015.32 1016.04 1016.76 1017.46 1018.12 1018.72 1019.26 1019.72 1020.11 1020.44 1020.71
1017.34 1016.93 1016.51 1016.06 1015.61 1015.13 1014.65 1014.14 1013.61 1013.06 1012.50 1011.95 1011.41 1010.91 1010.47 1010.10 1009.82 1009.62 1009.51 1009.50 1009.56 1009.69 1009.88 1010.12 1010.42 1010.77 1011.17 1011.64 1012.17 1012.76 1013.42 1014.13 1014.88 1015.65 1016.41 1017.15 1017.84 1018.47 1019.03 1019.52 1019.94 1020.28 1020.58
Thickness
5594 5595 5596 5596 5595 5594 5593 5593 5593 5593 5593 5594 5595 5595 5595 5597 5599 5600 5602 5604 5605 5607 5608 5608 5608 5609 5610 5611 5611 5611 5610 5608 5608 5608 5606 5605 5606 5608 5608 5608 5607 5607 5606
5587 5589 5589 5589 5588 5587 5587 5587 5586 5587 5587 5588 5588 5589 5589 5589 5591 5592 5593 5595 5596 5598 5600 5600 5600 5601 5601 5602 5603 5604 5602 5601 5600 5599 5597 5595 5594 5596 5598 5598 5598 5597 5597
5582 5583 5584 5583 5582 5582 5581 5582 5580 5581 5581 5580 5580 5581 5580 5581 5582 5584 5585 5587 5588 5590 5591 5592 5592 5592 5593 5593 5595 5596 5596 5593 5592 5593 5592 5589 5588 5586 5586 5587 5588 5588 5587
5578 5578 5578 5578 5578 5577 5576 5576 5575 5575 5574 5574 5575 5575 5575 5575 5576 5577 5578 5579 5580 5581 5582 5584 5585 5585 5586 5586 5587 5588 5589 5588 5586 5584 5584 5585 5584 5580 5577 5576 5577 5577 5577
5572 5573 5573 5573 5573 5572 5570 5569 5569 5569 5569 5569 5570 5570 5570 5570 5569 5569 5569 5571 5572 5573 5575 5577 5577 5578 5579 5579 5580 5580 5580 5580 5580 5578 5576 5575 5573 5573 5572 5568 5566 5566 5567
5567 5567 5567 5566 5566 5565 5564 5563 5563 5563 5563 5563 5564 5565 5565 5564 5563 5563 5562 5563 5564 5566 5568 5570 5570 5570 5571 5571 5572 5573 5572 5572 5572 5571 5571 5570 5567 5565 5564 5561 5557 5556 5556
5559 5559 5559 5559 5559 5559 5558 5558 5558 5558 5558 5558 5558 5559 5560 5559 5559 5558 5557 5557 5557 5558 5561 5562 5562 5562 5563 5563 5563 5564 5564 5564 5563 5563 5562 5562 5562 5560 5557 5553 5548 5546 5544
5551 5552 5552 5552 5553 5554 5553 5552 5552 5552 5552 5552 5553 5552 5553 5553 5553 5553 5553 5552 5552 5553 5554 5554 5554 5554 5554 5554 5555 5555 5555 5555 5554 5554 5553 5552 5552 5551 5549 5545 5540 5535 5532
5544 5545 5546 5547 5548 5548 5548 5547 5547 5546 5546 5547 5546 5545 5545 5546 5546 5546 5545 5546 5546 5546 5547 5546 5546 5547 5546 5546 5546 5546 5546 5545 5545 5544 5543 5542 5541 5540 5538 5536 5534 5529 5524
5536 5538 5540 5541 5542 5543 5543 5542 5541 5541 5540 5540 5539 5539 5539 5539 5540 5538 5538 5539 5539 5539 5540 5540 5540 5539 5539 5538 5538 5538 5537 5536 5535 5534 5532 5531 5530 5528 5526 5525 5523 5521 5517
5529 5530 5532 5534 5535 5535 5536 5535 5534 5533 5532 5532 5532 5532 5532 5533 5533 5532 5532 5532 5532 5532 5532 5532 5532 5532 5531 5531 5530 5529 5528 5527 5526 5524 5522 5520 5519 5517 5515 5513 5511 5508 5506
5522 5522 5523 5525 5526 5526 5527 5527 5526 5526 5525 5525 5524 5524 5524 5524 5524 5524 5524 5524 5524 5524 5524 5524 5524 5524 5524 5522 5521 5520 5519 5518 5516 5514 5512 5510 5508 5506 5504 5501 5500 5498 5495
5515 5514 5514 5515 5516 5518 5518 5518 5518 5517 5517 5517 5516 5516 5516 5516 5516 5516 5517 5517 5517 5517 5516 5515 5515 5516 5516 5514 5513 5512 5510 5508 5506 5504 5502 5501 5498 5495 5493 5491 5489 5486 5484
5507 5506 5505 5506 5507 5508 5509 5509 5509 5509 5509 5509 5508 5508 5508 5508 5508 5508 5509 5509 5508 5508 5508 5507 5507 5507 5507 5505 5504 5502 5500 5498 5496 5494 5492 5491 5488 5486 5483 5480 5477 5474 5470
5500 5499 5497 5496 5498 5499 5499 5500 5500 5501 5500 5500 5499 5499 5499 5499 5499 5500 5500 5500 5499 5499 5499 5499 5498 5497 5496 5495 5494 5492 5490 5487 5484 5482 5481 5480 5478 5476 5474 5471 5467 5463 5459
5491 5490 5489 5489 5489 5489 5490 5491 5491 5491 5491 5491 5491 5491 5490 5490 5490 5490 5490 5490 5489 5488 5488 5489 5488 5487 5486 5485 5484 5482 5479 5476 5474 5471 5469 5468 5466 5465 5463 5461 5458 5453 5449
5482 5481 5479 5479 5480 5480 5481 5481 5482 5482 5482 5481 5481 5481 5481 5481 5481 5481 5480 5480 5479 5478 5478 5477 5476 5475 5474 5474 5472 5470 5468 5466 5463 5460 5458 5456 5455 5453 5450 5448 5446 5442 5439
5472 5471 5470 5471 5471 5471 5472 5473 5473 5473 5473 5472 5472 5472 5471 5471 5471 5471 5470 5469 5468 5468 5467 5466 5465 5464 5463 5463 5461 5460 5457 5455 5453 5450 5447 5445 5442 5440 5438 5435 5432 5429 5427
5463 5462 5462 5462 5463 5463 5463 5464 5464 5464 5464 5463 5463 5463 5463 5462 5462 5461 5460 5458 5458 5457 5456 5455 5454 5453 5452 5452 5450 5448 5445 5443 5441 5438 5436 5433 5431 5429 5427 5423 5420 5417 5414
5452 5452 5452 5452 5453 5454 5454 5454 5453 5453 5454 5454 5453 5453 5452 5452 5451 5450 5448 5447 5446 5446 5445 5443 5442 5441 5440 5440 5439 5437 5434 5431 5428 5426 5424 5422 5420 5417 5414 5411 5408 5405 5403
5442 5441 5441 5441 5442 5443 5443 5443 5443 5443 5443 5443 5443 5442 5442 5441 5440 5438 5437 5435 5434 5433 5431 5430 5429 5428 5428 5428 5427 5425 5422 5420 5416 5414 5411 5409 5408 5405 5403 5400 5398 5396 5392
5430 5429 5429 5430 5431 5431 5432 5432 5432 5433 5433 5433 5432 5431 5431 5430 5428 5426 5424 5422 5421 5419 5418 5416 5416 5415 5415 5415 5414 5413 5411 5408 5405 5403 5401 5398 5396 5394 5392 5389 5387 5384 5380
5417 5417 5417 5417 5418 5419 5419 5420 5421 5422 5422 5422 5421 5420 5419 5417 5416 5414 5412 5410 5408 5406 5405 5404 5403 5402 5402 5401 5401 5400 5398 5396 5393 5391 5389 5387 5385 5382 5380 5377 5374 5371 5367
5404 5404 5404 5405 5405 5406 5407 5407 5409 5409 5409 5409 5408 5407 5406 5404 5403 5401 5400 5398 5396 5394 5393 5392 5390 5389 5388 5387 5386 5386 5384 5383 5381 5379 5377 5375 5372 5370 5367 5365 5361 5358 5355
5390 5390 5390 5391 5392 5393 5394 5395 5396 5397 5396 5395 5394 5393 5392 5390 5389 5388 5387 5386 5385 5383 5382 5380 5378 5377 5376 5376 5376 5374 5372 5370 5368 5365 5363 5360 5357 5355 5353 5350 5347 5345 5342
5377 5377 5377 5378 5379 5380 5382 5382 5383 5383 5383 5382 5381 5380 5378 5377 5375 5373 5373 5373 5372 5372 5371 5369 5367 5366 5366 5365 5364 5362 5361 5359 5357 5353 5350 5347 5344 5342 5340 5337 5335 5332 5329